Luxeuil, France

2:29 AM CET on February 23, 2018 (GMT +0100)
Saint Sauveur Air Base

Weather History for LFSX - March, 2013

Change the Weather History Date:

Saturday, March 16, 2013

  Actual Average Record
Temperature  
Mean Temperature 34 °F -  
Max Temperature 46 °F 55 °F 71 °F (2012)
Min Temperature 21 °F 36 °F 21 °F (2013)
Degree Days  
Heating Degree Days 32    
Moisture  
Dew Point 18 °F    
Average Humidity 52    
Maximum Humidity 80    
Minimum Humidity 25    
Precipitation  
Precipitation 0.00 in - - ()
Sea Level Pressure  
Sea Level Pressure 29.86 in    
Wind  
Wind Speed 7 mph ()    
Max Wind Speed 15 mph    
Max Gust Speed -    
Visibility 6.2 miles    
Events      
Averages and records for this station are not official NWS values.
T = Trace of Precipitation, MM = Missing Value Source: Averaged Metar Reports

Daily Weather History Graph

Daily Weather History Graph

Search for Another Location

Airport or City:

Trip Planner

Search our weather history database for the weather conditions in past years. The results will help you decide how hot, cold, wet, or windy it might be!

Date:

Astronomy

Mar. 16, 2013 Rise Set
Actual Time 6:45 AM CET 6:41 PM CET
Civil Twilight 6:14 AM CET 7:12 PM CET
Nautical Twilight 5:38 AM CET 7:48 PM CET
Astronomical Twilight 5:02 AM CET 8:25 PM CET
Moon 8:43 AM CET (3/16) 11:59 PM CET (3/16)
Length of Visible Light 12h 57m
Length of Day
11h 55m
Waxing Crescent, 21% of the Moon is Illuminated
Mar 16
Waxing Crescent
Mar 19
First Quarter
Mar 27
Full
Apr 3
Last Quarter
Apr 10
New

Hourly Weather History & Observations

Time (CET) Temp. Windchill Dew Point Humidity Pressure Visibility Wind Dir Wind Speed Gust Speed Precip Events Conditions
12:00 AM 24.8 °F 16.9 °F 17.6 °F 74% 30.04 in 6.2 mi East 6.9 mph - N/A   Unknown
12:30 AM 24.8 °F 17.9 °F 15.8 °F 69% 30.04 in 6.2 mi East 5.8 mph - N/A   Unknown
1:00 AM 24.8 °F 16.1 °F 15.8 °F 69% 30.04 in 6.2 mi East 8.1 mph - N/A   Unknown
1:30 AM 23.0 °F 14.7 °F 17.6 °F 80% 30.04 in 6.2 mi East 6.9 mph - N/A   Unknown
2:00 AM 23.0 °F 15.8 °F 15.8 °F 74% 30.04 in 6.2 mi East 5.8 mph - N/A   Unknown
2:30 AM 24.8 °F 16.9 °F 15.8 °F 69% 30.04 in 6.2 mi ENE 6.9 mph - N/A   Unknown
3:00 AM 23.0 °F 15.8 °F 15.8 °F 74% 30.01 in 6.2 mi ENE 5.8 mph - N/A   Unknown
3:30 AM 23.0 °F 13.9 °F 17.6 °F 80% 30.01 in 6.2 mi East 8.1 mph - N/A   Unknown
4:00 AM 23.0 °F 14.7 °F 15.8 °F 74% 29.98 in 6.2 mi East 6.9 mph - N/A   Unknown
4:30 AM 23.0 °F 15.8 °F 15.8 °F 74% 29.98 in 6.2 mi East 5.8 mph - N/A   Unknown
5:00 AM 23.0 °F 17.0 °F 15.8 °F 74% 29.98 in 6.2 mi ENE 4.6 mph - N/A   Unknown
5:30 AM 23.0 °F 15.8 °F 15.8 °F 74% 29.98 in 6.2 mi ENE 5.8 mph - N/A   Unknown
6:00 AM 21.2 °F 12.6 °F 14.0 °F 74% 29.95 in 6.2 mi East 6.9 mph - N/A   Unknown
6:30 AM 23.0 °F 18.4 °F 14.0 °F 68% 29.95 in 6.2 mi East 3.5 mph - N/A   Unknown
7:00 AM 23.0 °F 18.4 °F 14.0 °F 68% 29.95 in 6.2 mi ENE 3.5 mph - N/A   Unknown
7:30 AM 23.0 °F 17.0 °F 15.8 °F 74% 29.95 in 6.2 mi ENE 4.6 mph - N/A   Unknown
8:00 AM 26.6 °F 20.0 °F 17.6 °F 69% 29.95 in 6.2 mi ENE 5.8 mph - N/A   Unknown
8:30 AM 30.2 °F 23.4 °F 17.6 °F 60% 29.95 in 6.2 mi East 6.9 mph - N/A   Unknown
9:00 AM 32.0 °F 25.6 °F 17.6 °F 55% 29.92 in 6.2 mi East 6.9 mph - N/A   Unknown
9:30 AM 37.4 °F 30.3 °F 17.6 °F 45% 29.92 in 6.2 mi ESE 10.4 mph - N/A   Unknown
10:00 AM 39.2 °F 31.6 °F 12.2 °F 33% 29.89 in 6.2 mi SE 12.7 mph - N/A   Unknown
10:30 AM 41.0 °F 33.9 °F 8.6 °F 26% 29.89 in 6.2 mi SE 12.7 mph - N/A   Unknown
11:00 AM 42.8 °F 35.4 °F 8.6 °F 25% 29.89 in 6.2 mi SE 15.0 mph - N/A   Unknown
11:30 AM 44.6 °F 38.8 °F 10.4 °F 25% 29.86 in 6.2 mi SSE 11.5 mph - N/A   Unknown
12:00 PM 44.6 °F 38.1 °F 14.0 °F 29% 29.86 in 6.2 mi SSE 13.8 mph - N/A   Unknown
12:30 PM 44.6 °F 38.1 °F 17.6 °F 34% 29.86 in 6.2 mi SE 13.8 mph - N/A   Unknown
1:00 PM 42.8 °F 35.8 °F 17.6 °F 36% 29.83 in 6.2 mi SE 13.8 mph - N/A   Unknown
1:30 PM 44.6 °F 38.8 °F 17.6 °F 34% 29.83 in 6.2 mi SE 11.5 mph - N/A   Unknown
2:00 PM 44.6 °F 39.7 °F 19.4 °F 37% 29.80 in 6.2 mi SSE 9.2 mph - N/A   Unknown
2:30 PM 46.4 °F 40.7 °F 19.4 °F 34% 29.77 in 6.2 mi SE 12.7 mph - N/A   Unknown
3:00 PM 46.4 °F 41.9 °F 19.4 °F 34% 29.77 in 6.2 mi SSE 9.2 mph - N/A   Unknown
3:30 PM 46.4 °F 42.4 °F 17.6 °F 32% 29.77 in 6.2 mi SSE 8.1 mph - N/A   Unknown
4:00 PM 46.4 °F 42.4 °F 21.2 °F 37% 29.74 in 6.2 mi SSE 8.1 mph - N/A   Unknown
4:30 PM 44.6 °F 40.7 °F 19.4 °F 37% 29.74 in 6.2 mi SSE 6.9 mph - N/A   Unknown
5:00 PM 44.6 °F 40.7 °F 19.4 °F 37% 29.74 in 6.2 mi SE 6.9 mph - N/A   Unknown
5:30 PM 42.8 °F 38.0 °F 19.4 °F 39% 29.74 in 6.2 mi SE 8.1 mph - N/A   Unknown
6:00 PM 42.8 °F 37.0 °F 21.2 °F 42% 29.74 in 6.2 mi ESE 10.4 mph - N/A   Unknown
6:30 PM 42.8 °F 38.6 °F 19.4 °F 39% 29.71 in 6.2 mi SE 6.9 mph - N/A   Unknown
7:00 PM 41.0 °F 37.1 °F 21.2 °F 45% 29.74 in 6.2 mi SSE 5.8 mph - N/A   Unknown
7:30 PM 41.0 °F 35.8 °F 21.2 °F 45% 29.74 in 6.2 mi SE 8.1 mph - N/A   Unknown
8:00 PM 41.0 °F 38.0 °F 21.2 °F 45% 29.74 in 6.2 mi ESE 4.6 mph - N/A   Unknown
8:30 PM 39.2 °F 34.2 °F 21.2 °F 49% 29.71 in 6.2 mi SE 6.9 mph - N/A   Unknown
9:00 PM 39.2 °F 34.2 °F 21.2 °F 49% 29.71 in 6.2 mi ESE 6.9 mph - N/A   Unknown
9:30 PM 39.2 °F 33.6 °F 23.0 °F 52% 29.71 in 6.2 mi SE 8.1 mph - N/A   Unknown
10:00 PM 41.0 °F 35.8 °F 24.8 °F 53% 29.71 in 6.2 mi South 8.1 mph - N/A   Unknown
10:30 PM 42.8 °F 39.3 °F 26.6 °F 53% 29.71 in 6.2 mi South 5.8 mph - N/A   Unknown
11:00 PM 42.8 °F 40.1 °F 28.4 °F 57% 29.71 in 6.2 mi SSE 4.6 mph - N/A   Unknown
11:30 PM 41.0 °F 37.1 °F 26.6 °F 57% 29.68 in 6.2 mi ESE 5.8 mph - N/A   Unknown